User: anonymous   Login
Location: Unspecified
(0.0000°N, 0.0000°E)
Time: 19:46:12
(UTC+00:00)
Language:

OAO 2 - Orbit

View from above orbital plane
View from above orbital plane
View from above satellite
View from above satellite

Ground track
Ground track

The orbit data is extracted from the following two-line orbital elements,

1 03597U 68110A   17269.20231319  .00000055  00000-0  20563-4 0  9996
2 03597  34.9932 186.3465 0005926 323.6195  36.4091 14.45782823572539
Epoch (UTC): 26 September 2017 04:51:19
Eccentricity: 0.0005926
inclination: 34.9932°
perigee height: 735 km
apogee height: 743 km
right ascension of ascending node: 186.3465°
argument of perigee: 323.6195°
revolutions per day: 14.45782823
mean anomaly at epoch: 36.4091°
orbit number at epoch: 57253

The dashed part of the orbit path shows where the satellite is in the earth's shadow,  

DLR